Precipitable_Water
0.10 0.08 0.06 0.07 0.07 0.08 0.08 0.07 0.06 0.08 0.10 0.09 0.10 0.10 0.12 0.14 0.14 0.15 0.17 0.18 0.19 0.20 0.21 0.21 0.22 0.21 0.21 0.20 0.19 0.18 0.18 0.23 0.28 0.27 0.30 0.33 0.42 0.56 0.80 0.89 0.97 1.10 1.23 1.31
0.10 0.08 0.09 0.08 0.08 0.07 0.08 0.07 0.06 0.10 0.11 0.10 0.10 0.10 0.12 0.13 0.13 0.15 0.15 0.15 0.16 0.18 0.20 0.20 0.21 0.21 0.21 0.20 0.19 0.18 0.18 0.21 0.27 0.28 0.30 0.35 0.38 0.48 0.65 0.77 0.86 0.98 1.15 1.28
0.10 0.11 0.12 0.10 0.08 0.07 0.08 0.07 0.07 0.08 0.12 0.13 0.12 0.09 0.11 0.12 0.14 0.15 0.15 0.15 0.16 0.17 0.16 0.17 0.18 0.19 0.20 0.20 0.19 0.19 0.18 0.20 0.26 0.28 0.29 0.33 0.37 0.41 0.48 0.66 0.76 0.96 1.04 1.19
0.11 0.13 0.13 0.12 0.10 0.10 0.07 0.10 0.09 0.10 0.09 0.06 0.12 0.04 0.09 0.13 0.14 0.13 0.13 0.14 0.15 0.16 0.15 0.16 0.17 0.17 0.17 0.19 0.20 0.19 0.19 0.19 0.24 0.28 0.28 0.30 0.32 0.33 0.41 0.57 0.65 0.88 0.92 1.07
0.11 0.12 0.13 0.13 0.13 0.13 0.10 0.10 0.10 0.11 0.10 0.09 0.08 0.09 0.07 0.12 0.10 0.11 0.13 0.14 0.14 0.14 0.16 0.17 0.18 0.19 0.19 0.19 0.20 0.20 0.20 0.19 0.24 0.28 0.27 0.29 0.30 0.36 0.40 0.47 0.52 0.74 0.82 0.90
0.13 0.15 0.15 0.15 0.16 0.16 0.14 0.10 0.11 0.10 0.09 0.06 0.07 0.08 0.06 0.08 0.10 0.11 0.12 0.13 0.14 0.15 0.16 0.18 0.19 0.19 0.19 0.20 0.19 0.19 0.20 0.19 0.24 0.27 0.27 0.26 0.29 0.32 0.36 0.40 0.45 0.56 0.73 0.79
0.13 0.13 0.15 0.17 0.15 0.17 0.15 0.11 0.07 0.06 0.06 0.05 0.09 0.08 0.06 0.10 0.11 0.12 0.12 0.12 0.14 0.15 0.17 0.18 0.18 0.19 0.20 0.20 0.19 0.20 0.20 0.19 0.24 0.25 0.25 0.25 0.28 0.32 0.35 0.38 0.41 0.47 0.57 0.73
0.11 0.11 0.14 0.17 0.16 0.16 0.15 0.13 0.08 0.07 0.07 0.07 0.09 0.06 0.06 0.11 0.13 0.15 0.15 0.14 0.15 0.16 0.17 0.17 0.20 0.21 0.21 0.21 0.20 0.20 0.20 0.20 0.24 0.24 0.25 0.25 0.26 0.32 0.35 0.38 0.40 0.42 0.46 0.60
0.13 0.13 0.16 0.17 0.18 0.18 0.16 0.14 0.15 0.11 0.12 0.09 0.09 0.09 0.10 0.10 0.12 0.14 0.15 0.16 0.16 0.16 0.17 0.20 0.21 0.22 0.22 0.22 0.21 0.21 0.21 0.21 0.23 0.23 0.24 0.25 0.26 0.31 0.34 0.37 0.39 0.43 0.45 0.52
0.16 0.13 0.17 0.17 0.18 0.20 0.18 0.20 0.14 0.14 0.09 0.08 0.09 0.08 0.07 0.08 0.10 0.13 0.14 0.16 0.15 0.17 0.18 0.19 0.21 0.22 0.23 0.23 0.23 0.23 0.23 0.23 0.24 0.24 0.24 0.26 0.27 0.32 0.36 0.38 0.37 0.40 0.44 0.50
0.20 0.16 0.16 0.17 0.17 0.17 0.18 0.17 0.18 0.17 0.15 0.10 0.09 0.09 0.10 0.09 0.12 0.13 0.14 0.15 0.16 0.18 0.18 0.20 0.21 0.24 0.24 0.24 0.23 0.25 0.26 0.25 0.24 0.25 0.25 0.27 0.28 0.32 0.37 0.38 0.39 0.41 0.44 0.48
0.21 0.18 0.15 0.16 0.21 0.21 0.20 0.19 0.19 0.16 0.15 0.15 0.14 0.11 0.12 0.13 0.14 0.15 0.15 0.15 0.17 0.17 0.20 0.22 0.22 0.23 0.23 0.25 0.25 0.25 0.27 0.26 0.27 0.27 0.27 0.29 0.30 0.32 0.35 0.38 0.40 0.42 0.44 0.47
0.21 0.18 0.15 0.16 0.19 0.21 0.19 0.21 0.22 0.22 0.20 0.16 0.13 0.11 0.14 0.15 0.15 0.16 0.15 0.15 0.16 0.17 0.21 0.21 0.21 0.22 0.24 0.24 0.25 0.26 0.26 0.27 0.27 0.27 0.28 0.29 0.31 0.32 0.35 0.40 0.42 0.43 0.45 0.46
0.24 0.21 0.18 0.16 0.18 0.21 0.20 0.21 0.23 0.22 0.18 0.18 0.16 0.15 0.14 0.14 0.14 0.13 0.14 0.15 0.16 0.19 0.20 0.20 0.21 0.22 0.23 0.22 0.24 0.25 0.26 0.27 0.27 0.27 0.27 0.28 0.30 0.35 0.38 0.43 0.44 0.45 0.47 0.46
0.24 0.20 0.22 0.23 0.23 0.23 0.23 0.22 0.23 0.22 0.22 0.19 0.19 0.17 0.16 0.14 0.12 0.13 0.15 0.16 0.16 0.18 0.19 0.19 0.20 0.21 0.21 0.21 0.23 0.25 0.26 0.26 0.26 0.28 0.28 0.28 0.33 0.39 0.41 0.43 0.45 0.46 0.47 0.46
0.26 0.20 0.23 0.22 0.25 0.24 0.22 0.23 0.24 0.24 0.24 0.23 0.22 0.19 0.19 0.16 0.15 0.15 0.15 0.16 0.16 0.17 0.18 0.19 0.20 0.20 0.18 0.20 0.22 0.24 0.23 0.22 0.25 0.26 0.26 0.28 0.31 0.38 0.43 0.45 0.43 0.45 0.45 0.45
0.25 0.23 0.22 0.19 0.23 0.23 0.19 0.21 0.23 0.24 0.25 0.24 0.20 0.21 0.20 0.16 0.15 0.15 0.15 0.17 0.17 0.17 0.18 0.19 0.20 0.18 0.18 0.20 0.22 0.22 0.22 0.22 0.23 0.24 0.25 0.26 0.29 0.36 0.43 0.43 0.43 0.44 0.44 0.45
0.26 0.25 0.25 0.20 0.22 0.16 0.23 0.27 0.27 0.26 0.26 0.26 0.25 0.25 0.22 0.19 0.18 0.17 0.18 0.18 0.18 0.18 0.17 0.18 0.17 0.17 0.18 0.20 0.22 0.22 0.23 0.22 0.21 0.21 0.23 0.26 0.27 0.34 0.41 0.42 0.41 0.41 0.42 0.43
0.31 0.28 0.24 0.20 0.20 0.22 0.24 0.25 0.25 0.24 0.24 0.26 0.26 0.26 0.25 0.23 0.20 0.17 0.19 0.20 0.20 0.18 0.17 0.17 0.17 0.17 0.18 0.20 0.21 0.20 0.20 0.21 0.21 0.19 0.22 0.24 0.28 0.32 0.38 0.39 0.38 0.38 0.38 0.39
0.32 0.32 0.27 0.24 0.19 0.17 0.24 0.26 0.27 0.26 0.21 0.28 0.28 0.27 0.26 0.25 0.17 0.16 0.20 0.21 0.19 0.18 0.18 0.17 0.17 0.18 0.19 0.20 0.20 0.18 0.18 0.19 0.18 0.19 0.21 0.24 0.27 0.31 0.35 0.35 0.33 0.32 0.33 0.35
0.27 0.27 0.25 0.25 0.22 0.24 0.29 0.29 0.29 0.20 0.22 0.30 0.31 0.30 0.28 0.25 0.23 0.22 0.22 0.19 0.19 0.18 0.18 0.18 0.18 0.18 0.19 0.20 0.19 0.17 0.18 0.17 0.18 0.19 0.21 0.23 0.26 0.31 0.33 0.31 0.31 0.29 0.28 0.26
0.26 0.25 0.25 0.27 0.23 0.20 0.33 0.29 0.25 0.29 0.33 0.33 0.32 0.31 0.30 0.29 0.28 0.26 0.23 0.20 0.19 0.18 0.18 0.18 0.18 0.19 0.20 0.20 0.18 0.16 0.16 0.18 0.19 0.19 0.21 0.23 0.26 0.30 0.30 0.28 0.28 0.27 0.25 0.22
0.26 0.29 0.27 0.29 0.28 0.33 0.34 0.33 0.33 0.34 0.33 0.33 0.33 0.33 0.32 0.30 0.30 0.29 0.25 0.22 0.20 0.18 0.18 0.18 0.18 0.18 0.19 0.19 0.18 0.16 0.17 0.19 0.18 0.18 0.22 0.23 0.27 0.28 0.27 0.26 0.24 0.23 0.22 0.22
0.34 0.37 0.32 0.32 0.34 0.34 0.35 0.35 0.35 0.35 0.34 0.35 0.36 0.35 0.33 0.31 0.30 0.29 0.27 0.24 0.21 0.19 0.18 0.19 0.18 0.17 0.17 0.18 0.18 0.18 0.18 0.18 0.18 0.18 0.21 0.24 0.26 0.26 0.26 0.25 0.23 0.21 0.20 0.18
0.37 0.39 0.36 0.34 0.35 0.35 0.37 0.36 0.36 0.35 0.36 0.36 0.37 0.35 0.33 0.32 0.31 0.29 0.28 0.26 0.24 0.21 0.19 0.19 0.17 0.16 0.15 0.17 0.17 0.18 0.18 0.18 0.17 0.19 0.22 0.23 0.24 0.25 0.25 0.24 0.22 0.21 0.21 0.18
0.41 0.37 0.34 0.32 0.36 0.34 0.35 0.36 0.38 0.36 0.36 0.38 0.36 0.35 0.35 0.34 0.31 0.31 0.29 0.29 0.26 0.23 0.21 0.19 0.17 0.16 0.15 0.16 0.17 0.18 0.19 0.19 0.18 0.18 0.20 0.22 0.22 0.21 0.22 0.22 0.22 0.23 0.20 0.16
Wind_Speed
19 19 20 18 17 14 14 15 17 18 20 19 18 17 16 16 16 15 17 18 18 19 20 20 21 23 24 24 25 25 26 26 26 26 26 26 27 25 26 26 26 25 23 22
16 21 19 18 17 17 17 18 19 18 20 19 18 19 19 17 17 17 17 18 17 19 20 21 22 23 25 26 26 26 26 27 27 26 27 28 28 28 27 27 27 27 25 23
17 15 18 18 19 18 18 19 19 17 19 20 19 21 19 19 19 19 19 18 18 18 18 20 22 23 25 26 27 28 27 27 27 27 27 28 29 29 28 27 28 28 27 25
16 15 17 19 19 18 19 20 18 18 18 18 19 20 19 18 19 19 20 19 19 19 18 18 19 20 22 25 26 28 29 28 27 27 27 28 29 30 30 29 27 29 28 28
14 15 16 18 19 19 19 21 16 17 17 18 19 20 20 21 21 21 21 20 20 19 18 18 18 19 20 21 23 26 27 27 27 26 27 28 29 31 31 30 29 31 29 29
15 15 16 16 18 19 21 21 18 17 18 18 18 19 21 20 22 23 22 20 19 19 19 20 19 19 21 20 20 21 24 25 26 26 27 28 29 30 32 31 30 30 31 30
16 15 17 17 18 20 23 22 19 19 19 16 18 21 20 23 24 24 24 23 21 21 22 23 20 21 21 20 19 19 21 23 25 26 26 27 29 30 31 32 31 30 31 30
16 17 16 17 18 19 20 20 17 16 17 19 20 17 21 23 26 25 25 24 24 24 24 23 22 22 20 20 20 19 18 21 23 25 26 26 29 30 31 32 33 32 32 32
15 14 16 17 17 19 19 21 17 18 19 20 18 22 25 23 26 26 26 26 27 26 26 26 24 21 20 20 19 18 17 17 20 23 24 25 27 30 31 32 33 33 33 33
12 14 15 16 18 19 19 18 19 20 19 20 21 22 21 25 27 27 26 28 29 29 28 27 24 20 19 19 18 17 16 15 17 20 22 24 25 28 30 31 32 33 34 34
13 12 15 16 15 16 18 19 19 17 16 16 20 22 21 24 26 26 27 30 29 30 29 28 25 21 20 19 17 16 14 13 14 16 19 21 23 25 27 29 31 33 34 34
13 11 14 13 16 16 16 17 17 17 17 17 18 21 23 25 25 26 29 29 30 30 30 29 25 21 20 19 17 15 12 12 11 12 13 16 19 22 24 27 29 31 33 34
11 13 16 14 15 17 17 17 17 18 18 17 17 21 25 26 25 26 28 28 29 30 30 30 27 23 21 20 17 14 11 8 5 5 8 11 14 18 21 24 27 29 32 33
12 11 11 12 14 15 16 16 16 16 17 17 17 25 28 26 26 26 26 27 28 29 29 29 27 24 22 18 17 15 13 10 6 4 4 5 9 13 17 20 23 26 29 32
11 12 13 15 17 15 17 19 16 14 16 16 22 21 28 25 23 24 24 26 27 27 27 27 26 24 20 19 17 15 13 12 8 7 5 4 5 7 12 16 19 23 26 29
12 13 15 17 15 13 16 16 16 16 16 18 22 25 24 22 22 23 24 25 25 26 26 26 26 24 20 18 16 15 15 12 9 8 7 6 5 5 7 10 15 18 22 26
11 12 14 14 17 18 15 14 14 16 15 16 18 22 22 22 21 22 23 23 24 25 26 25 25 22 20 17 15 15 15 13 11 10 9 8 7 5 5 7 10 15 18 22
10 12 12 14 18 15 13 15 15 15 16 16 20 22 21 21 21 21 22 22 24 24 24 25 23 22 19 17 15 15 14 13 11 11 10 9 8 7 6 4 7 10 15 19
11 11 13 12 14 17 14 13 14 15 17 17 18 21 21 22 22 22 21 21 22 22 23 23 22 21 19 17 15 15 14 13 11 11 10 10 9 8 6 6 6 7 11 16
10 11 11 12 13 13 14 15 15 16 16 17 18 20 20 21 22 22 21 21 21 21 22 21 21 20 18 17 16 15 15 13 12 12 10 9 9 8 7 7 7 7 8 10
11 11 11 11 13 16 14 13 14 15 17 19 18 18 18 19 20 21 21 20 20 21 20 20 19 19 18 18 17 16 15 13 14 13 10 9 8 7 6 7 8 8 7 6
11 9 11 10 12 14 11 13 11 16 18 19 18 18 18 20 20 20 20 20 20 20 20 19 18 18 18 18 17 16 15 14 13 14 12 9 8 6 6 6 7 8 8 6
13 11 11 11 13 16 14 15 16 16 17 18 19 19 18 18 19 19 19 19 19 19 19 18 17 17 17 17 17 16 14 14 14 13 11 11 9 7 6 6 7 7 7 7
15 14 15 13 15 17 18 19 18 16 17 18 19 18 18 18 18 18 19 19 19 19 18 17 17 17 17 17 15 15 14 14 13 12 10 10 9 8 8 7 6 6 6 6
17 14 15 17 21 20 19 16 17 16 17 18 19 19 17 17 18 18 19 19 19 18 18 17 17 17 16 15 15 14 14 14 13 11 9 9 8 8 8 8 8 7 6 5
16 16 13 15 16 15 16 16 15 15 17 18 18 19 19 18 18 18 19 19 18 18 17 17 16 16 15 14 13 13 13 13 11 10 9 8 8 7 7 7 7 7 7 7
Wind_Direction
36 40 37 37 35 30 19 8 360 351 349 358 359 1 353 345 340 328 323 316 301 294 289 284 280 276 273 275 273 270 267 263 258 256 251 245 241 240 236 236 235 234 233 231
31 36 31 29 26 23 16 9 1 359 2 6 0 356 351 346 343 336 329 327 317 300 293 289 287 281 276 274 274 271 267 263 257 254 249 243 240 237 235 238 234 231 231 229
39 29 25 23 21 17 11 9 359 2 6 8 4 353 349 348 344 341 335 330 327 318 307 296 291 286 280 275 273 272 267 262 256 252 248 243 238 236 233 237 234 230 231 227
32 22 22 18 17 13 10 1 360 4 2 359 3 353 350 348 345 343 339 334 330 327 320 308 302 299 292 281 274 270 266 260 254 250 246 242 238 235 234 235 233 228 229 227
22 19 18 17 11 8 3 1 2 4 7 2 359 2 354 356 350 343 340 335 333 331 329 320 311 307 305 294 282 272 266 260 252 247 243 241 238 234 233 234 232 228 230 226
25 17 16 11 11 10 2 7 9 6 4 2 0 6 356 358 354 352 346 341 337 335 332 327 318 311 310 304 294 279 268 262 253 246 244 241 238 236 233 232 232 230 229 228
14 13 11 11 6 6 8 11 8 6 4 354 0 2 348 352 349 349 348 346 342 337 333 329 321 317 311 308 302 291 272 262 255 248 244 241 238 236 233 231 231 231 228 228
14 10 11 10 9 7 9 12 16 360 360 351 352 354 353 354 351 350 349 350 346 341 336 332 323 319 315 310 306 298 282 265 255 250 245 242 238 235 232 230 230 230 229 230
8 4 9 9 10 13 7 9 6 5 3 3 360 353 350 355 352 351 350 350 346 342 339 335 330 324 319 315 310 303 291 273 258 252 247 242 238 235 233 231 230 229 230 228
1 359 4 7 9 10 8 9 6 5 4 358 357 355 354 356 352 353 352 349 348 348 345 342 338 332 327 322 314 307 296 279 265 254 250 241 237 235 233 231 231 230 230 229
1 2 358 5 3 2 4 5 9 6 6 360 358 353 354 353 353 354 352 352 352 351 350 348 344 339 334 331 324 314 300 288 274 259 248 242 238 233 233 232 232 230 229 229
355 358 347 347 356 0 2 359 5 8 357 354 356 352 356 353 351 352 352 353 354 356 356 355 353 350 347 344 337 327 311 298 283 262 247 243 239 234 234 234 233 231 229 228
348 352 350 354 357 355 354 355 356 360 0 350 358 348 352 350 351 350 352 354 356 358 360 1 1 359 357 357 357 357 347 329 303 267 257 250 241 237 235 236 233 231 229 229
345 345 341 338 336 347 345 348 350 356 359 353 342 336 343 348 350 350 352 355 358 359 1 5 6 7 8 14 18 21 27 24 13 341 302 266 252 243 238 237 234 231 229 229
337 334 337 330 322 329 330 331 341 344 344 346 345 345 340 348 351 354 356 358 359 1 4 6 9 11 16 18 19 23 21 18 23 20 8 336 287 259 246 239 235 232 229 229
329 331 338 338 341 339 335 332 336 335 348 338 336 337 346 352 356 356 356 358 0 3 5 7 9 12 17 19 22 24 19 20 23 16 6 354 337 302 268 243 237 233 230 230
322 330 340 336 344 338 341 345 352 351 351 354 353 347 356 354 352 355 357 359 1 2 4 5 8 13 15 18 22 22 22 25 24 20 13 4 352 340 320 261 245 237 236 233
316 325 332 331 343 350 342 346 349 344 341 344 346 350 353 352 353 355 356 358 359 1 4 6 11 14 15 17 18 15 15 14 11 9 7 5 360 350 336 303 267 250 242 237
304 322 327 332 335 327 340 349 351 354 346 352 349 351 354 357 359 354 355 358 359 2 4 7 10 12 15 16 13 9 7 6 6 1 358 360 1 359 354 336 311 279 259 246
305 311 320 328 333 329 337 345 350 355 349 351 351 349 355 1 1 358 359 359 1 2 3 5 7 10 13 12 10 9 6 4 359 356 353 349 351 356 358 355 346 319 289 266
300 302 300 313 316 320 323 336 345 352 342 346 346 347 353 355 353 357 359 359 359 359 0 3 6 7 8 8 8 7 6 6 3 357 351 349 348 345 350 356 356 350 335 301
287 294 303 312 319 320 326 342 333 331 339 341 342 342 344 346 350 351 354 355 356 357 359 0 2 2 2 2 4 5 6 4 2 3 2 358 350 344 334 339 349 358 358 349
291 280 295 284 300 311 306 311 313 324 330 335 337 337 337 342 345 348 350 350 350 352 354 354 355 356 357 358 359 2 2 2 1 1 4 5 6 358 342 333 329 338 351 359
287 281 287 297 305 298 299 302 310 313 319 327 330 332 333 336 339 342 345 347 347 347 349 350 351 350 350 353 356 357 357 356 356 358 1 2 6 6 6 358 339 329 326 336
282 284 283 289 299 302 303 305 308 309 315 323 327 329 326 330 332 335 338 339 340 341 342 343 344 345 345 347 349 351 352 352 353 356 359 4 4 3 2 3 7 1 346 328
278 276 273 282 296 303 305 310 315 313 316 319 324 327 325 323 325 328 331 334 334 335 335 335 335 337 337 338 340 342 345 348 348 347 347 350 356 1 4 7 16 24 34 37